Location: Baia Mare
(47.6567°N, 23.5850°E)
Time: 11:49:17
(UTC+02:00)

ISS - Pass Details

Date: 03 February 2019
Orbit: 404 x 407 km, 51.6° (Epoch: 16 January)

Event Time Altitude Azimuth Distance (km) Brightness Sun altitude
Rises 18:04:52 0° 284° (WNW) 2,326 1.2 -6.5°
Reaches altitude 10° 18:07:02 10° 292° (WNW) 1,466 -0.2 -6.8°
Maximum altitude 18:10:09 39° 4° (N) 620 -3.1 -7.3°
Enters shadow 18:13:11 11° 75° (ENE) 1,434 -1.8 -7.8°
